FW5754 Weather Reports


Display with metric or nautical units.
time (UTC)temp
F
wind
direction
speed
MPH
gust
MPH
rain 1hr
in
rain 24hr
in
rain mn
in
humidity
%
barometer
mb
20260831043050 74 312 15.0 19.0 0.00 0.02 0.00 82 1018.4
20260831042533 74 300 14.0 19.0 0.00 0.02 0.00 83 1018.3
20260831042036 74 299 14.0 17.0 0.00 0.02 0.00 84 1018.3
20260831041554 74 291 13.0 18.0 0.00 0.02 0.00 84 1018.2
20260831041037 74 287 14.0 18.0 0.00 0.02 0.00 84 1018.3
20260831040531 74 281 14.0 17.0 0.00 0.02 0.00 83 1018.3
20260831040058 74 289 13.0 17.0 0.00 0.02 0.00 84 1018.4
20260831035535 74 264 11.0 16.0 0.00 0.02 0.02 83 1018.4
20260831035035 74 279 11.0 17.0 0.00 0.02 0.02 84 1018.3
20260831034551 74 275 12.0 16.0 0.00 0.02 0.02 84 1018.4
20260831034035 74 249 10.0 16.0 0.00 0.02 0.02 85 1018.5
20260831033532 74 266 10.0 15.0 0.00 0.02 0.02 85 1018.5
20260831033049 74 273 9.0 15.0 0.00 0.02 0.02 84 1018.6
20260831032534 74 272 10.0 15.0 0.01 0.02 0.02 84 1018.7
20260831032034 73 279 10.0 16.0 0.01 0.02 0.02 84 1018.7
20260831031544 73 265 9.0 16.0 0.01 0.02 0.02 85 1018.7
20260831031033 73 277 10.0 16.0 0.01 0.02 0.02 86 1018.8
20260831030534 73 281 11.0 16.0 0.01 0.02 0.02 85 1018.9
20260831030058 73 248 7.0 15.0 0.01 0.02 0.02 85 1019.0
20260831025537 74 261 8.0 14.0 0.01 0.02 0.02 87 1019.0
20260831025035 74 268 10.0 14.0 0.01 0.02 0.02 86 1019.1
20260831024547 73 273 6.0 16.0 0.01 0.02 0.02 85 1019.0
20260831024037 74 262 9.0 16.0 0.02 0.02 0.02 85 1019.0
20260831023534 73 266 9.0 14.0 0.02 0.02 0.02 85 1019.1
20260831023051 73 237 6.0 12.0 0.02 0.02 0.02 87 1019.0
20260831022538 73 223 4.0 12.0 0.01 0.01 0.01 87 1018.9
20260831022034 73 265 5.0 12.0 0.01 0.01 0.01 87 1018.8
20260831021551 73 224 6.0 11.0 0.01 0.01 0.01 88 1018.8
20260831021031 73 251 4.0 10.0 0.01 0.01 0.01 88 1018.9
20260831020534 73 243 4.0 11.0 0.01 0.01 0.01 88 1018.9
20260831020050 73 246 4.0 11.0 0.01 0.01 0.01 88 1018.9
20260831015532 73 194 3.0 10.0 0.01 0.01 0.01 88 1018.8
20260831015032 73 214 4.0 10.0 0.01 0.01 0.01 88 1018.7
20260831014547 73 204 2.0 6.0 0.01 0.01 0.01 87 1018.9
20260831014034 73 204 1.0 6.0 0.00 0.00 0.00 87 1018.7
20260831013534 73 204 2.0 7.0 0.00 0.00 0.00 86 1018.7
20260831013053 73 204 3.0 7.0 0.00 0.00 0.00 85 1018.7
20260831012534 73 204 3.0 8.0 0.00 0.00 0.00 84 1018.7
20260831012032 73 204 4.0 9.0 0.00 0.00 0.00 84 1018.7
20260831011551 73 204 3.0 9.0 0.00 0.00 0.00 84 1018.6
20260831011033 73 205 4.0 9.0 0.00 0.00 0.00 83 1018.7
20260831010533 73 205 3.0 10.0 0.00 0.00 0.00 83 1018.6
20260831010104 73 209 2.0 10.0 0.00 0.00 0.00 83 1018.5
20260831005532 74 209 3.0 10.0 0.00 0.00 0.00 83 1018.5
20260831005032 73 216 4.0 10.0 0.00 0.00 0.00 83 1018.5
20260831004552 73 195 3.0 8.0 0.00 0.00 0.00 83 1018.5
20260831004031 73 194 3.0 9.0 0.00 0.00 0.00 83 1018.6
20260831003532 73 194 3.0 11.0 0.00 0.00 0.00 82 1018.5
20260831003104 73 194 2.0 16.0 0.00 0.00 0.00 82 1018.4
20260831002533 73 189 4.0 12.0 0.00 0.00 0.00 82 1018.5
20260831002031 73 205 4.0 11.0 0.00 0.00 0.00 82 1018.4
20260831001558 73 202 3.0 11.0 0.00 0.00 0.00 82 1018.5
20260831001035 73 197 4.0 11.0 0.00 0.00 0.00 82 1018.4
20260831000534 73 206 5.0 11.0 0.00 0.00 0.00 82 1018.4
20260831000054 73 205 3.0 11.0 0.00 0.00 0.00 82 1018.3
20260830235534 73 207 3.0 11.0 0.00 0.00 0.00 81 1018.4
20260830235034 73 213 2.0 10.0 0.00 0.00 0.00 81 1018.3
20260830234600 73 209 3.0 10.0 0.00 0.00 0.00 81 1018.3
20260830234037 73 207 2.0 10.0 0.00 0.00 0.00 81 1018.2
20260830233534 73 211 3.0 8.0 0.00 0.00 0.00 80 1018.3
20260830233046 73 211 1.0 9.0 0.00 0.00 0.00 80 1018.2
20260830232534 73 212 4.0 9.0 0.00 0.00 0.00 80 1018.3
20260830232033 73 211 3.0 9.0 0.00 0.00 0.00 79 1018.3
20260830231548 74 208 2.0 10.0 0.00 0.00 0.00 79 1018.4
20260830231033 74 208 4.0 10.0 0.00 0.00 0.00 79 1018.4
20260830230535 74 209 2.0 9.0 0.00 0.00 0.00 78 1018.2
20260830230052 74 209 3.0 9.0 0.00 0.00 0.00 78 1018.2
20260830225531 74 209 3.0 9.0 0.00 0.00 0.00 77 1018.2
20260830225034 74 209 3.0 7.0 0.00 0.00 0.00 77 1018.2
20260830224548 74 208 2.0 8.0 0.00 0.00 0.00 77 1018.1
20260830224035 74 209 3.0 8.0 0.00 0.00 0.00 77 1018.3
20260830223535 74 207 2.0 10.0 0.00 0.00 0.00 77 1018.5
20260830223045 74 208 3.0 10.0 0.00 0.00 0.00 77 1018.5
20260830222535 74 208 2.0 9.0 0.00 0.00 0.00 77 1018.6
20260830222031 74 207 3.0 9.0 0.00 0.00 0.00 77 1018.5
20260830221555 74 207 1.0 8.0 0.00 0.00 0.00 77 1018.5
20260830221035 74 208 2.0 8.0 0.00 0.00 0.00 77 1018.6
20260830220533 75 209 2.0 9.0 0.00 0.00 0.00 76 1018.6
20260830220048 75 209 3.0 9.0 0.00 0.00 0.00 76 1018.6
20260830215537 75 208 3.0 10.0 0.00 0.00 0.00 76 1018.5
20260830215036 75 208 5.0 10.0 0.00 0.00 0.00 75 1018.6
20260830214557 75 208 2.0 6.0 0.00 0.00 0.00 76 1018.6
20260830214035 75 208 1.0 11.0 0.00 0.00 0.00 76 1018.6
20260830213535 75 208 4.0 11.0 0.00 0.00 0.00 75 1018.7
20260830213049 76 211 3.0 10.0 0.00 0.00 0.00 76 1018.7
20260830212536 76 211 3.0 11.0 0.00 0.00 0.00 75 1018.7
20260830212032 76 211 3.0 11.0 0.00 0.00 0.00 75 1018.8
20260830211549 76 214 3.0 9.0 0.00 0.00 0.00 75 1018.8
20260830211031 76 214 3.0 9.0 0.00 0.00 0.00 74 1018.7
20260830210534 76 214 2.0 9.0 0.00 0.00 0.00 74 1018.7
20260830210048 77 214 3.0 10.0 0.00 0.00 0.00 73 1018.8
20260830205534 77 215 2.0 10.0 0.00 0.00 0.00 73 1018.8
20260830205034 77 215 4.0 10.0 0.00 0.00 0.00 72 1018.7
20260830204544 77 217 2.0 7.0 0.00 0.00 0.00 71 1018.8
20260830204035 78 217 2.0 10.0 0.00 0.00 0.00 70 1018.7
20260830203535 78 217 3.0 10.0 0.00 0.00 0.00 70 1018.7
20260830203052 78 221 1.0 8.0 0.00 0.00 0.00 69 1018.8
20260830202531 78 221 3.0 8.0 0.00 0.00 0.00 68 1018.8
20260830202033 78 222 3.0 7.0 0.00 0.00 0.00 68 1018.7
20260830201551 78 215 3.0 11.0 0.00 0.00 0.00 67 1018.7
20260830201032 78 205 4.0 11.0 0.00 0.00 0.00 68 1018.9
20260830200534 78 261 5.0 12.0 0.00 0.00 0.00 69 1018.9
20260830200048 79 263 7.0 12.0 0.00 0.00 0.00 65 1018.9
20260830195533 79 263 5.0 12.0 0.00 0.00 0.00 65 1018.9
20260830195030 80 265 6.0 13.0 0.00 0.00 0.00 65 1019.0
20260830194605 80 265 6.0 13.0 0.00 0.00 0.00 62 1019.0
20260830194034 80 253 7.0 13.0 0.00 0.00 0.00 62 1019.3
20260830193535 80 261 6.0 12.0 0.00 0.00 0.00 61 1019.1
20260830193049 80 256 6.0 14.0 0.00 0.00 0.00 61 1019.3
20260830192530 80 267 8.0 14.0 0.00 0.00 0.00 61 1019.3
20260830192034 81 270 8.0 13.0 0.00 0.00 0.00 61 1019.4
20260830191546 81 262 6.0 13.0 0.00 0.00 0.00 59 1019.5
20260830191033 81 254 5.0 13.0 0.00 0.00 0.00 60 1019.4
20260830190533 81 246 4.0 10.0 0.00 0.00 0.00 58 1019.6
20260830190046 81 259 4.0 10.0 0.00 0.00 0.00 57 1019.6
20260830185532 81 263 4.0 8.0 0.00 0.00 0.00 58 1019.5
20260830185032 81 265 2.0 8.0 0.00 0.00 0.00 60 1019.6
20260830184553 80 265 2.0 9.0 0.00 0.00 0.00 61 1019.6
20260830184031 79 0 5.0 9.0 0.00 0.00 0.00 63 1019.7
20260830183533 78 279 5.0 9.0 0.00 0.00 0.00 61 1019.7
20260830183049 77 280 6.0 9.0 0.00 0.00 0.00 65 1019.7
20260830182534 76 280 5.0 7.0 0.00 0.00 0.00 74 1019.9
20260830182034 76 280 5.0 7.0 0.00 0.00 0.00 72 1020.0
20260830181547 75 280 4.0 8.0 0.00 0.00 0.00 73 1020.1
20260830181032 76 280 5.0 9.0 0.00 0.00 0.00 71 1020.2
20260830180534 77 280 5.0 9.0 0.00 0.00 0.00 69 1020.1
20260830180055 76 280 4.0 7.0 0.00 0.00 0.00 69 1020.2
20260830175535 76 280 3.0 7.0 0.00 0.00 0.00 70 1020.2
20260830175034 75 280 3.0 7.0 0.00 0.00 0.00 73 1020.2
20260830174609 75 280 3.0 7.0 0.00 0.00 0.00 74 1020.3
20260830174030 75 280 4.0 7.0 0.00 0.00 0.00 72 1020.3
20260830173531 75 280 4.0 7.0 0.00 0.00 0.00 73 1020.3
20260830173046 76 280 4.0 6.0 0.00 0.00 0.00 71 1020.3
20260830172534 76 280 3.0 6.0 0.00 0.00 0.00 74 1020.4
20260830172034 75 280 2.0 7.0 0.00 0.00 0.00 73 1020.5
20260830171547 75 280 3.0 7.0 0.00 0.00 0.00 74 1020.7
20260830171032 75 280 3.0 7.0 0.00 0.00 0.00 74 1020.9
20260830170533 74 280 5.0 8.0 0.00 0.00 0.00 74 1020.8
20260830170053 74 280 6.0 9.0 0.00 0.00 0.00 75 1020.9
20260830165533 74 280 6.0 9.0 0.00 0.00 0.00 75 1021.0
20260830165031 74 280 7.0 8.0 0.00 0.00 0.00 76 1020.9
20260830164546 74 280 7.0 8.0 0.00 0.00 0.00 75 1020.9
20260830164031 74 280 7.0 8.0 0.00 0.00 0.00 75 1020.8
20260830163533 75 280 5.0 8.0 0.00 0.00 0.00 75 1020.9
20260830163053 74 280 7.0 10.0 0.00 0.00 0.00 74 1021.0
20260830162531 75 279 7.0 10.0 0.00 0.00 0.00 74 1021.0
20260830162033 75 279 7.0 9.0 0.00 0.00 0.00 73 1021.0
20260830161605 75 279 7.0 8.0 0.00 0.00 0.00 73 1021.0
20260830161031 75 278 6.0 9.0 0.00 0.00 0.00 71 1021.0
20260830160535 75 278 6.0 9.0 0.00 0.00 0.00 72 1021.1
20260830160048 75 278 7.0 10.0 0.00 0.00 0.00 72 1021.0
20260830155534 75 278 8.0 10.0 0.00 0.00 0.00 72 1021.2
20260830155031 75 278 7.0 9.0 0.00 0.00 0.00 71 1021.3
20260830154556 75 278 6.0 11.0 0.00 0.00 0.00 71 1021.3
20260830154032 75 278 7.0 11.0 0.00 0.00 0.00 69 1021.4
20260830153532 75 277 8.0 11.0 0.00 0.00 0.00 73 1021.5
20260830153102 75 277 8.0 10.0 0.00 0.00 0.00 70 1021.6
20260830152534 75 276 7.0 10.0 0.00 0.00 0.00 69 1021.5
20260830152031 75 276 7.0 10.0 0.00 0.00 0.00 69 1021.5
20260830151556 75 276 8.0 10.0 0.00 0.00 0.00 69 1021.7
20260830151033 75 276 8.0 10.0 0.00 0.00 0.00 70 1021.8
20260830150531 75 270 7.0 10.0 0.00 0.00 0.00 70 1021.8
20260830150050 75 268 6.0 11.0 0.00 0.00 0.00 68 1021.9
20260830145536 75 269 7.0 11.0 0.00 0.00 0.00 68 1021.9
20260830145031 75 261 6.0 11.0 0.00 0.00 0.00 64 1021.9
20260830144600 76 263 6.0 11.0 0.00 0.00 0.00 61 1022.0
20260830144032 76 257 3.0 10.0 0.00 0.00 0.00 61 1022.0
20260830143532 75 237 5.0 11.0 0.00 0.00 0.00 59 1022.0
20260830143051 75 259 6.0 11.0 0.00 0.00 0.00 62 1022.1
20260830142531 75 254 4.0 11.0 0.00 0.00 0.00 62 1022.2
20260830142033 75 254 5.0 11.0 0.00 0.00 0.00 59 1022.2
20260830141546 75 250 4.0 9.0 0.00 0.00 0.00 61 1022.2
20260830141031 75 250 4.0 10.0 0.00 0.00 0.00 63 1022.4
20260830140530 75 247 4.0 11.0 0.00 0.00 0.00 61 1022.4
20260830140109 75 251 2.0 11.0 0.00 0.00 0.00 62 1022.3
20260830135536 74 259 4.0 13.0 0.00 0.00 0.00 64 1022.4
20260830135031 74 258 4.0 13.0 0.00 0.00 0.00 65 1022.4
20260830134545 73 261 4.0 13.0 0.00 0.00 0.00 66 1022.3
20260830134032 73 274 5.0 10.0 0.00 0.00 0.00 72 1022.5
20260830133533 73 274 5.0 10.0 0.00 0.00 0.00 74 1022.5
20260830133050 73 276 4.0 10.0 0.00 0.00 0.00 74 1022.5
20260830132530 73 282 2.0 8.0 0.00 0.00 0.00 75 1022.5
20260830132033 72 282 3.0 8.0 0.00 0.00 0.00 74 1022.5
20260830131549 72 283 3.0 8.0 0.00 0.00 0.00 76 1022.7
20260830131034 72 282 3.0 7.0 0.00 0.00 0.00 75 1022.6
20260830130531 71 283 2.0 7.0 0.00 0.00 0.00 76 1022.6
20260830130055 71 283 1.0 7.0 0.00 0.00 0.00 76 1022.5
20260830125534 71 284 2.0 7.0 0.00 0.00 0.00 76 1022.7
20260830125031 70 284 1.0 6.0 0.00 0.00 0.00 78 1022.7
20260830124550 70 284 1.0 4.0 0.00 0.00 0.00 77 1022.7
20260830124035 70 0 0.0 7.0 0.00 0.00 0.00 77 1022.8
20260830123534 70 284 1.0 7.0 0.00 0.00 0.00 79 1022.7
20260830123055 69 284 2.0 7.0 0.00 0.00 0.00 79 1022.7
20260830122531 69 0 1.0 4.0 0.00 0.00 0.00 79 1022.8
20260830122032 68 284 1.0 4.0 0.00 0.00 0.00 80 1022.9
20260830121547 68 284 1.0 4.0 0.00 0.00 0.00 81 1022.9
20260830121034 68 284 2.0 6.0 0.00 0.00 0.00 82 1022.8
20260830120533 68 284 1.0 6.0 0.00 0.00 0.00 83 1022.7
20260830120047 67 284 2.0 4.0 0.00 0.00 0.00 84 1022.8
20260830115531 67 284 2.0 4.0 0.00 0.00 0.00 83 1022.7
20260830115031 67 284 1.0 4.0 0.00 0.00 0.00 84 1022.8
20260830114551 67 283 1.0 4.0 0.00 0.00 0.00 84 1022.7
20260830114030 67 0 1.0 4.0 0.00 0.00 0.00 85 1022.7
20260830113531 67 0 1.0 4.0 0.00 0.00 0.00 85 1022.6
20260830113053 66 284 1.0 3.0 0.00 0.00 0.00 86 1022.7
20260830112534 66 284 0.0 3.0 0.00 0.00 0.00 86 1022.8
20260830112031 66 283 1.0 3.0 0.00 0.00 0.00 86 1022.6
20260830111548 66 283 1.0 4.0 0.00 0.00 0.00 85 1022.6
20260830111031 66 283 2.0 4.0 0.00 0.00 0.00 85 1022.6
20260830110530 66 284 2.0 4.0 0.00 0.00 0.00 85 1022.5
20260830110048 66 0 1.0 4.0 0.00 0.00 0.00 85 1022.5
20260830105531 66 284 2.0 8.0 0.00 0.00 0.00 84 1022.5
20260830105030 67 283 2.0 8.0 0.00 0.00 0.00 83 1022.5
20260830104559 67 283 1.0 8.0 0.00 0.00 0.00 82 1022.5
20260830104032 67 284 0.0 7.0 0.00 0.00 0.00 82 1022.4
20260830103534 68 284 1.0 7.0 0.00 0.00 0.00 81 1022.4
20260830103048 68 284 2.0 7.0 0.00 0.00 0.00 81 1022.3
20260830102530 68 284 2.0 7.0 0.00 0.00 0.00 81 1022.4
20260830102030 67 284 2.0 6.0 0.00 0.00 0.00 81 1022.4
20260830101556 67 284 2.0 7.0 0.00 0.00 0.00 82 1022.4
20260830101033 67 284 2.0 7.0 0.00 0.00 0.00 83 1022.5
20260830100531 67 284 2.0 7.0 0.00 0.00 0.00 83 1022.5
20260830100044 66 284 2.0 7.0 0.00 0.00 0.00 84 1022.6
20260830095531 66 284 3.0 7.0 0.00 0.00 0.00 84 1022.7
20260830095031 66 284 2.0 7.0 0.00 0.00 0.00 84 1022.7
20260830094556 66 284 2.0 7.0 0.00 0.00 0.00 84 1022.7
20260830094034 66 284 2.0 6.0 0.00 0.00 0.00 84 1022.7
20260830093533 66 284 2.0 7.0 0.00 0.00 0.00 84 1022.7
20260830093046 66 284 2.0 8.0 0.00 0.00 0.00 83 1022.6
20260830092535 65 284 3.0 8.0 0.00 0.00 0.00 83 1022.7
20260830092032 65 284 3.0 9.0 0.00 0.00 0.00 83 1022.7
20260830091547 65 286 3.0 9.0 0.00 0.00 0.00 84 1022.6
20260830091034 65 286 3.0 9.0 0.00 0.00 0.00 84 1022.7
20260830090535 65 287 2.0 9.0 0.00 0.00 0.00 85 1022.8
20260830090100 65 287 3.0 9.0 0.00 0.00 0.00 85 1022.8
20260830085530 65 0 3.0 9.0 0.00 0.00 0.00 85 1022.8
20260830085032 65 298 2.0 7.0 0.00 0.00 0.00 85 1022.8
20260830084547 65 298 2.0 7.0 0.00 0.00 0.00 85 1022.7
20260830084031 65 300 2.0 7.0 0.00 0.00 0.00 85 1022.8
20260830083532 65 300 2.0 7.0 0.00 0.00 0.00 85 1022.8
20260830083050 65 300 2.0 8.0 0.00 0.00 0.00 85 1023.0
20260830082532 65 301 2.0 8.0 0.00 0.00 0.00 85 1022.9
20260830082032 65 301 2.0 9.0 0.00 0.00 0.00 85 1022.9
20260830081551 65 302 2.0 9.0 0.00 0.00 0.00 85 1022.9
20260830081032 64 302 2.0 5.0 0.00 0.00 0.00 84 1022.9
20260830080530 65 304 1.0 5.0 0.00 0.00 0.00 84 1023.0
20260830080052 65 304 1.0 5.0 0.00 0.00 0.00 83 1023.1
20260830075532 65 304 1.0 5.0 0.00 0.00 0.00 83 1023.1
20260830075031 65 304 1.0 4.0 0.00 0.00 0.00 83 1023.2
20260830074547 65 304 1.0 7.0 0.00 0.00 0.00 82 1023.2
20260830074031 65 304 1.0 7.0 0.00 0.00 0.00 82 1023.2
20260830073533 65 304 2.0 7.0 0.00 0.00 0.00 82 1023.2
20260830073057 65 304 2.0 7.0 0.00 0.00 0.00 82 1023.2
20260830072531 65 304 2.0 7.0 0.00 0.00 0.00 81 1023.2
20260830072032 65 306 2.0 7.0 0.00 0.00 0.00 81 1023.2
20260830071611 65 307 2.0 7.0 0.00 0.00 0.00 80 1023.0
20260830071030 65 308 2.0 4.0 0.00 0.00 0.00 80 1023.0
20260830070531 65 308 2.0 5.0 0.00 0.00 0.00 79 1023.0
20260830070046 65 308 1.0 9.0 0.00 0.00 0.00 79 1023.0
20260830065542 65 308 2.0 9.0 0.00 0.00 0.00 78 1023.0
20260830065030 65 311 1.0 9.0 0.00 0.00 0.00 78 1022.9
20260830064549 65 324 2.0 9.0 0.00 0.00 0.00 77 1022.9
20260830064032 65 327 3.0 9.0 0.00 0.00 0.00 77 1022.7
20260830063532 65 334 2.0 8.0 0.00 0.00 0.00 77 1022.7
20260830063047 65 336 2.0 8.0 0.00 0.00 0.00 77 1022.7
20260830062532 65 338 1.0 5.0 0.00 0.00 0.00 77 1022.7
20260830062030 65 338 1.0 5.0 0.00 0.00 0.00 77 1022.6
20260830061547 65 338 2.0 5.0 0.00 0.00 0.00 76 1022.7
20260830061030 65 338 1.0 6.0 0.00 0.00 0.00 76 1022.8
20260830060531 65 337 2.0 6.0 0.00 0.00 0.00 76 1022.8
20260830060046 65 338 2.0 6.0 0.00 0.00 0.00 77 1022.7
20260830055531 65 338 2.0 6.0 0.00 0.00 0.00 77 1022.8
20260830055031 65 337 1.0 4.0 0.00 0.00 0.00 78 1022.9
20260830054556 65 338 1.0 4.0 0.00 0.00 0.00 78 1022.8
20260830054032 65 338 1.0 4.0 0.00 0.00 0.00 78 1022.9
20260830053530 65 338 1.0 4.0 0.00 0.00 0.00 77 1022.9
20260830053048 65 0 1.0 4.0 0.00 0.00 0.00 77 1022.9
20260830052530 65 0 0.0 4.0 0.00 0.00 0.00 76 1022.8
20260830052030 65 0 0.0 3.0 0.00 0.00 0.00 75 1022.8
20260830051548 65 338 0.0 4.0 0.00 0.00 0.00 75 1022.7
20260830051031 65 338 0.0 4.0 0.00 0.00 0.00 75 1022.7
20260830050531 65 338 1.0 5.0 0.00 0.00 0.00 74 1022.7
20260830050115 65 338 1.0 6.0 0.00 0.00 0.00 74 1022.7
20260830045529 65 338 2.0 6.0 0.00 0.00 0.00 74 1022.7
20260830045033 65 338 1.0 6.0 0.00 0.00 0.00 73 1022.8
20260830044548 65 338 2.0 5.0 0.00 0.00 0.00 74 1022.8
20260830044031 65 338 2.0 5.0 0.00 0.00 0.00 76 1022.8
20260830043532 65 338 1.0 5.0 0.00 0.00 0.00 76 1022.7